This is the latest recevied weather packets stored in our database for station/object KC5TIL. If no packets are shown the sender has not sent any weather packets the latest 10 day(s).
| Time | Temp. | Humidity | Pressure | Rain* | Wind** | Luminosity | Snow |
|---|---|---|---|---|---|---|---|
| 1777678582 | 17.78° C | 61% | 1017.5 hPa | 0 mm | - | 69 W/m² | - |
| 1777678280 | 17.78° C | 59% | 1017.5 hPa | 0 mm | - | 74 W/m² | - |
| 1777677975 | 17.78° C | 60% | 1017.4 hPa | 0 mm | - | 68 W/m² | - |
| 1777677673 | 17.78° C | 60% | 1017.2 hPa | 0 mm | - | 64 W/m² | - |
| 1777677370 | 17.78° C | 61% | 1017 hPa | 0 mm | - | 59 W/m² | - |
| 1777677068 | 17.78° C | 61% | 1017.1 hPa | 0 mm | - | 61 W/m² | - |
| 1777676767 | 17.78° C | 60% | 1017 hPa | 0 mm | - | 72 W/m² | - |
| 1777676464 | 17.78° C | 60% | 1016.9 hPa | 0 mm | - | 81 W/m² | - |
| 1777676162 | 17.78° C | 60% | 1016.9 hPa | 0 mm | - | 77 W/m² | - |
| 1777675858 | 17.78° C | 59% | 1017.3 hPa | 0 mm | - | 86 W/m² | - |
| 1777675556 | 17.78° C | 60% | 1017 hPa | 0 mm | - | 105 W/m² | - |
| 1777675252 | 17.78° C | 60% | 1016.9 hPa | 0 mm | - | 91 W/m² | - |
| 1777674949 | 17.78° C | 59% | 1017.1 hPa | 0 mm | - | 95 W/m² | - |
| 1777674645 | 17.78° C | 59% | 1017 hPa | 0 mm | - | 106 W/m² | - |
| 1777674346 | 17.78° C | 58% | 1017.1 hPa | 0 mm | - | 119 W/m² | - |
| 1777674039 | 17.78° C | 59% | 1017.1 hPa | 0 mm | - | 108 W/m² | - |
| 1777673735 | 17.78° C | 59% | 1017.1 hPa | 0 mm | - | 104 W/m² | - |
| 1777673432 | 17.78° C | 58% | 1016.9 hPa | 0 mm | - | 102 W/m² | - |
| 1777673130 | 17.78° C | 57% | 1017 hPa | 0 mm | - | 95 W/m² | - |
| 1777672827 | 17.78° C | 58% | 1017.1 hPa | 0 mm | - | 98 W/m² | - |
| 1777672523 | 17.78° C | 57% | 1016.9 hPa | 0 mm | - | 104 W/m² | - |
| 1777672219 | 17.78° C | 57% | 1016.7 hPa | 0 mm | - | 117 W/m² | - |
| 1777671914 | 17.78° C | 58% | 1017.2 hPa | 0 mm | - | 135 W/m² | - |
| 1777671610 | 17.78° C | 57% | 1017 hPa | 0 mm | - | 151 W/m² | - |
| 1777671307 | 17.78° C | 58% | 1017.1 hPa | 0 mm | - | 168 W/m² | - |
* Rain latest hour (hover to see other rain measurements)
** Current wind speed in m/s (hover to see current wind gust speed)